This is the latest recevied weather packets stored in our database for station/object SP5EB-3. If no packets are shown the sender has not sent any weather packets the latest 1 day(s).
| Time | Temp. | Humidity | Pressure | Rain* | Wind** | Luminosity | Snow |
|---|---|---|---|---|---|---|---|
| 1777984454 | 28.89° C | 99% | 1005.8 hPa | - | 0 m/s | - | - |
| 1777984144 | 29.44° C | 99% | 1005.8 hPa | - | 0 m/s | - | - |
| 1777983834 | 30° C | 99% | 1005.8 hPa | - | 0 m/s | - | - |
| 1777983213 | 30° C | 99% | 1005.9 hPa | - | 0 m/s | - | - |
| 1777982903 | 29.44° C | 99% | 1005.9 hPa | - | 0 m/s | - | - |
| 1777982283 | 29.44° C | 99% | 1006.1 hPa | - | 0 m/s | - | - |
| 1777981973 | 28.89° C | 99% | 1006.1 hPa | - | 0 m/s | - | - |
| 1777981663 | 28.89° C | 99% | 1006.1 hPa | - | 0 m/s | - | - |
| 1777980732 | 27.78° C | 99% | 1006.3 hPa | - | 0 m/s | - | - |
| 1777980422 | 28.33° C | 99% | 1006.3 hPa | - | 0 m/s | - | - |
| 1777980112 | 28.33° C | 99% | 1006.6 hPa | - | 0 m/s | - | - |
| 1777979803 | 28.33° C | 99% | 1006.5 hPa | - | 0 m/s | - | - |
| 1777979492 | 28.33° C | 99% | 1006.6 hPa | - | 0 m/s | - | - |
| 1777979182 | 28.33° C | 99% | 1006.5 hPa | - | 0 m/s | - | - |
| 1777978872 | 28.33° C | 99% | 1006.5 hPa | - | 0 m/s | - | - |
| 1777978562 | 28.89° C | 99% | 1006.8 hPa | - | 0 m/s | - | - |
| 1777978252 | 28.89° C | 99% | 1006.7 hPa | - | 0 m/s | - | - |
| 1777977943 | 28.89° C | 99% | 1006.8 hPa | - | 0 m/s | - | - |
| 1777977632 | 28.89° C | 99% | 1006.9 hPa | - | 0 m/s | - | - |
| 1777977322 | 28.33° C | 99% | 1006.9 hPa | - | 0 m/s | - | - |
| 1777977012 | 27.78° C | 99% | 1006.9 hPa | - | 0 m/s | - | - |
| 1777976703 | 27.22° C | 99% | 1006.9 hPa | - | 0 m/s | - | - |
| 1777976393 | 26.67° C | 99% | 1007 hPa | - | 0 m/s | - | - |
| 1777976084 | 26.67° C | 99% | 1007 hPa | - | 0 m/s | - | - |
| 1777975773 | 25.56° C | 99% | 1007.1 hPa | - | 0 m/s | - | - |
* Rain since midnight (hover to see other rain measurements)
** Current wind speed in m/s (hover to see current wind gust speed)